Onweer radar Meer informatie blitzortung!


Regen radar Meer informatie rain snow radar


Bezoek onze andere website:

Template documentation
and downloads

And another site



15 daagse weersverwachting Mouscron (BE)

  • Overzicht
  • Per uur
  • 15 dagen
  • Extra
  • Vergelijk
  • Kaarten
  • Dagkaart
  • Meer »
  • Info
  • Statistieken
  • Directe link
    Temp 6h Neerslag Wind  
 06:16     21:31    Daglengte: 15:15 Vandaag
02:00
13°
 
3
08:00
15°
 
4
14:00
18°
0.6 mm
4
20:00
17°
7.2 mm
3
 06:18     21:30    Daglengte: 15:12 Morgen
02:00
15°
3.7 mm
1
08:00
14°
12.0 mm
2
14:00
18°
1.8 mm
2
20:00
18°
2.4 mm
2
 06:19     21:28    Daglengte: 15:09 Dinsdag 03 Aug
02:00
14°
 
2
08:00
14°
 
2
14:00
21°
 
2
20:00
20°
 
3
Locatie info
Region: Wallonien
Latitude: 50.7438°N
Longitude: 3.2146°E
53 masl
Postcode: 7700
Temp/Neerslag /Baro Onweer/Dauwpunt
    Temp Baro 1h Neerslag Dauwpunt Wind UV Bewolking  
 06:16     21:31    Daglengte: 15:15 Vandaag
01:00
14°
1010.9 hPa
48%
12.1°
3
Windvlaag: 3.9 m/s
4%
02:00
13°
1010.6 hPa
13%
12.3°
3
Windvlaag: 3.8 m/s
6%
03:00
13°
1010.4 hPa
13%
12.5°
3
Windvlaag: 4 m/s
9%
04:00
13°
1010.2 hPa
14%
12.3°
3
Windvlaag: 3.7 m/s
13%
05:00
13°
1009.8 hPa
13%
12.4°
3
Windvlaag: 3.5 m/s
41%
06:00
14°
1009.7 hPa
13%
12.7°
3
Windvlaag: 3.5 m/s
49%
07:00
14°
1009.8 hPa
14%
12.9°
3
Windvlaag: 3.8 m/s
65%
08:00
15°
1010.1 hPa
14%
13.3°
4
Windvlaag: 4.8 m/s
67%
09:00
15°
1010.4 hPa
24%
13.6°
4
Windvlaag: 4.8 m/s
21%
10:00
16°
1010.7 hPa
76%
13.7°
4
Windvlaag: 4.5 m/s
18%
11:00
17°
1011.0 hPa 0.2 mm
82%
13.7°
4
Windvlaag: 3.9 m/s
51%
12:00
18°
1011.0 hPa
82%
13.3°
4
Windvlaag: 3.4 m/s
56%
13:00
18°
1011.0 hPa 0.4 mm
82%
13.2°
4
Windvlaag: 2.8 m/s
63%
14:00
18°
1011.0 hPa
82%
14.4°
4
Windvlaag: 2 m/s
57%
15:00
18°
1011.0 hPa 0.8 mm
82%
13.8°
4
Windvlaag: 1.2 m/s
52% warningclass
16:00
19°
1011.0 hPa 1.3 mm
82%
13.4°
4
Windvlaag: 0.3 m/s
43%
17:00
18°
1011.0 hPa 1.7 mm
82%
12.7°
4
Windvlaag: -1.1 m/s
36%
18:00
18°
1011.2 hPa 1.6 mm
82%
12.7°
4
Windvlaag: -0.6 m/s
23%
19:00
18°
1011.3 hPa 1.7 mm
81%
13.4°
3
Windvlaag: -1.9 m/s
16%
20:00
17°
1011.6 hPa
82%
13.1°
3
Windvlaag: -1.8 m/s
30%
21:00
17°
1011.7 hPa
82%
13.2°
2
Windvlaag: -1.2 m/s
19%
22:00
16°
1012.4 hPa
73%
13.5°
1
Windvlaag: -0.9 m/s
21%
23:00
15°
1012.7 hPa
18%
13.7°
1
Windvlaag: -0 m/s
55%
 06:18     21:30    Daglengte: 15:12 Morgen
00:00
15°
1012.8 hPa
63%
13.7°
1
Windvlaag: -0.2 m/s
68%
01:00
15°
1012.8 hPa 1.8 mm
80%
13.8°
1
Windvlaag: -1.2 m/s
75%
02:00
15°
1012.7 hPa 1.9 mm
76%
13.9°
1
Windvlaag: -1.6 m/s
59%
03:00
15°
1012.7 hPa 1.8 mm
76%
13.6°
2
Windvlaag: -1.5 m/s
58%
04:00
14°
1012.8 hPa 1.7 mm
73%
13.6°
2
Windvlaag: -1.3 m/s
63%
05:00
14°
1012.8 hPa 1.7 mm
69%
13.7°
2
Windvlaag: -1.8 m/s
66%
06:00
14°
1013.1 hPa 2.1 mm
67%
13.5°
2
Windvlaag: -2.7 m/s
63%
07:00
14°
1013.6 hPa 2.4 mm
72%
13.4°
2
Windvlaag: -2.9 m/s
73%
08:00
14°
1013.8 hPa 2.2 mm
73%
13.0°
2
Windvlaag: -2.6 m/s
70%
09:00
15°
1014.1 hPa 1.8 mm
78%
13.1°
2
Windvlaag: -1.1 m/s
72%
10:00
15°
1014.4 hPa
82%
13.4°
2
Windvlaag: 1.1 m/s
58%
11:00
16°
1014.8 hPa
82%
13.5°
1
Windvlaag: 0.9 m/s
33%
12:00
17°
1014.9 hPa
82%
13.9°
2
Windvlaag: -0.3 m/s
21%
13:00
18°
1014.8 hPa
82%
12.7°
1
Windvlaag: 2.1 m/s
32%
14:00
18°
1014.7 hPa
82%
12.4°
2
Windvlaag: 3.9 m/s
61%
15:00
18°
1014.6 hPa 2.4 mm
81%
12.0°
2
Windvlaag: 3.8 m/s
39%
16:00
19°
1014.5 hPa
73%
12.3°
2
Windvlaag: 3.3 m/s
21%
17:00
19°
1014.4 hPa
72%
12.8°
2
Windvlaag: 0.7 m/s
81%
18:00
18°
1014.4 hPa
33%
12.5°
2
Windvlaag: -0.8 m/s
81%
19:00
18°
1014.3 hPa
18%
12.8°
2
Windvlaag: 1 m/s
65%
20:00
18°
1014.3 hPa
18%
13.0°
2
Windvlaag: 0 m/s
53%
21:00
17°
1014.5 hPa
14%
12.4°
2
Windvlaag: -1.6 m/s
65%
22:00
15°
1015.0 hPa
14%
12.3°
2
Windvlaag: -1.7 m/s
69%
23:00
15°
1014.5 hPa
21%
8.3°
2
Windvlaag: -1.4 m/s
86%
 06:19     21:28    Daglengte: 15:09 Dinsdag 03 Aug
00:00
15°
1014.7 hPa
21%
8.8°
2
Windvlaag: -1.2 m/s
84%
01:00
14°
1014.6 hPa
21%
8.2°
2
Windvlaag: -1.1 m/s
76%
02:00
14°
1014.5 hPa
21%
8.2°
2
Windvlaag: -1 m/s
82%
03:00
13°
1014.2 hPa
21%
8.2°
2
Windvlaag: -1.1 m/s
79%
04:00
13°
1013.9 hPa
21%
8.5°
2
Windvlaag: -1.5 m/s
78%
05:00
13°
1013.7 hPa
21%
8.3°
2
Windvlaag: -1.4 m/s
69%
06:00
13°
1013.6 hPa
21%
8.3°
2
Windvlaag: -1.9 m/s
70%
07:00
13°
1013.9 hPa
21%
8.4°
2
Windvlaag: -1.9 m/s
61%
08:00
14°
1014.0 hPa
21%
9.2°
2
Windvlaag: -1.8 m/s
60%
09:00
15°
1014.1 hPa
21%
9.7°
2
Windvlaag: 3.4 m/s
76%
10:00
16°
1014.0 hPa
21%
9.7°
2
Windvlaag: 4.2 m/s
71%
11:00
18°
1013.9 hPa
21%
10.2°
3
Windvlaag: 3 m/s
67%
12:00
19°
1013.6 hPa
21%
10.2°
3
Windvlaag: 3 m/s
70%
13:00
20°
1013.3 hPa
24%
9.9°
2
Windvlaag: 2.5 m/s
40%
14:00
21°
1012.9 hPa
29%
9.6°
2
Windvlaag: 2.2 m/s
64%
15:00
21°
1012.7 hPa
35%
9.2°
2
Windvlaag: 2.2 m/s
44%
16:00
21°
1012.4 hPa
38%
9.0°
2
Windvlaag: 2.4 m/s
49%
17:00
22°
1012.1 hPa
37%
9.5°
2
Windvlaag: 3 m/s
43%
18:00
22°
1011.8 hPa
41%
11.3°
2
Windvlaag: 4.4 m/s
53%
19:00
21°
1011.8 hPa
37%
11.8°
3
Windvlaag: 4.4 m/s
54%
20:00
20°
1012.1 hPa
74%
11.5°
3
Windvlaag: 4.3 m/s
53%
21:00
18°
1012.6 hPa
32%
11.5°
3
Windvlaag: 4.3 m/s
12%
22:00
17°
1013.1 hPa
21%
10.9°
3
Windvlaag: 5.3 m/s
10%
23:00
16°
1013.3 hPa
21%
10.7°
2
Windvlaag: 6 m/s
10%
 06:21     21:27    Daglengte: 15:06 Woensdag 04 Aug
00:00
15°
1013.4 hPa
25%
10.7°
2
Windvlaag: 6.4 m/s
13%
Temp/Neerslag /Baro Onweer/Dauwpunt
    Temp Baro Neerslag Dauwpunt Wind Bewolking  
 06:16     21:31    Daglengte: 15:15 Vandaag
02:00
13°
1010.6 hPa   12.3°
3
6%
05:00
13°
1009.8 hPa   12.4°
3
41%
08:00
15°
1010.1 hPa   13.3°
4
67%
11:00
17°
1011.0 hPa 0.2 mm 13.7°
4
51%
14:00
18°
1011.0 hPa 0.4 mm 14.4°
4
57%
17:00
18°
1011.0 hPa 3.8 mm 12.7°
4
36%
20:00
17°
1011.6 hPa 3.4 mm 13.1°
3
30%
23:00
15°
1012.7 hPa   13.7°
1
55%
 06:18     21:30    Daglengte: 15:12 Morgen
02:00
15°
1012.7 hPa 3.7 mm 13.9°
1
59%
05:00
14°
1012.8 hPa 5.3 mm 13.7°
2
66%
08:00
14°
1013.8 hPa 6.7 mm 13.0°
2
70%
11:00
16°
1014.8 hPa 1.8 mm 13.5°
1
33%
14:00
18°
1014.7 hPa   12.4°
2
61%
17:00
19°
1014.4 hPa 2.4 mm 12.8°
2
81%
20:00
18°
1014.3 hPa   13.0°
2
53%
23:00
15°
1014.5 hPa   8.3°
2
86%
 06:19     21:28    Daglengte: 15:09 Dinsdag 03 Aug
02:00
14°
1014.5 hPa   8.2°
2
82%
05:00
13°
1013.7 hPa   8.3°
2
69%
08:00
14°
1014.0 hPa   9.2°
2
60%
11:00
18°
1013.9 hPa   10.2°
3
67%
14:00
21°
1012.9 hPa   9.6°
2
64%
17:00
22°
1012.1 hPa   9.5°
2
43%
20:00
20°
1012.1 hPa   11.5°
3
53%
23:00
16°
1013.3 hPa   10.7°
2
10%
 06:21     21:27    Daglengte: 15:06 Woensdag 04 Aug
02:00
14°
1013.1 hPa   11.3°
2
17%
05:00
14°
1012.3 hPa 20.7 mm 12.8°
1
1%
08:00
14°
1013.0 hPa 21.9 mm 12.9°
0
1%
11:00
15°
1013.8 hPa 23.0 mm 13.2°
2
1%
14:00
16°
1014.1 hPa 24.9 mm 13.3°
1
1%
17:00
17°
1014.5 hPa 26.2 mm 13.5°
1
1%
20:00
16°
1014.4 hPa 27.6 mm 14.2°
2
1%
23:00
14°
1015.3 hPa 28.2 mm 13.1°
2
1%
 06:22     21:25    Daglengte: 15:03 Donderdag 05 Aug
02:00
13°
1014.8 hPa 28.2 mm 12.0°
1
1%
05:00
12°
1013.3 hPa 28.2 mm 10.9°
2
0%
08:00
12°
1012.0 hPa 28.2 mm 10.9°
3
1%
11:00
15°
1010.5 hPa 28.2 mm 11.4°
4
1%
14:00
16°
1008.5 hPa 28.6 mm 12.8°
5
1%
17:00
14°
1005.8 hPa 29.7 mm 12.4°
6
1%
20:00
14°
1004.2 hPa 31.8 mm 12.9°
6
1%
23:00
14°
1003.1 hPa 32.0 mm 13.5°
5
1%
 06:24     21:23    Daglengte: 14:59 Vrijdag 06 Aug
02:00
14°
1002.5 hPa 32.3 mm 13.1°
5
1%
05:00
14°
1001.0 hPa 37.8 mm 13.6°
5
1%
08:00
14°
999.7 hPa 42.6 mm 13.6°
7
1%
11:00
16°
1001.1 hPa 44.1 mm 14.3°
7
1%
14:00
17°
1002.3 hPa 45.1 mm 15.1°
7
1%
17:00
18°
1003.5 hPa 46.3 mm 15.3°
8
1%
20:00
17°
1005.3 hPa 46.7 mm 13.6°
7
1%
23:00
15°
1007.2 hPa 46.7 mm 12.8°
6
0%
 06:25     21:21    Daglengte: 14:56 Zaterdag 07 Aug
02:00
14°
1008.2 hPa 46.7 mm 13.0°
5
0%
05:00
15°
1008.5 hPa 46.7 mm 12.2°
5
1%
08:00
15°
1008.8 hPa 46.7 mm 11.7°
4
1%
11:00
18°
1009.1 hPa 46.7 mm 11.1°
4
1%
14:00
21°
1008.5 hPa 46.8 mm 9.1°
4
1%
17:00
22°
1008.1 hPa 46.8 mm 10.6°
5
1%
20:00
19°
1007.4 hPa 46.9 mm 12.2°
2
1%
23:00
18°
1007.4 hPa   12.5°
4
1%
 06:27     21:20    Daglengte: 14:53 Zondag 08 Aug
02:00
17°
1007.0 hPa 94.2 mm 14.2°
5
1%
08:00
16°
1007.1 hPa 96.4 mm 13.9°
5
1%
14:00
21°
1008.8 hPa 97.2 mm 11.6°
8
0%
20:00
17°
1010.9 hPa 99.8 mm 12.0°
9
0%
 06:28     21:18    Daglengte: 14:50 Maandag 09 Aug
02:00
16°
1015.0 hPa 100.7 mm 11.8°
8
1%
08:00
16°
1017.5 hPa 101.0 mm 12.6°
6
1%
14:00
19°
1020.8 hPa 102.1 mm 12.6°
6
1%
20:00
18°
1022.7 hPa 102.7 mm 11.5°
5
1%
 06:30     21:16    Daglengte: 14:46 Dinsdag 10 Aug
02:00
14°
1024.2 hPa 102.7 mm 12.4°
4
1%
08:00
14°
1024.2 hPa 102.7 mm 13.0°
3
1%
14:00
20°
1024.2 hPa 102.8 mm 14.4°
5
1%
20:00
19°
1020.4 hPa 0.5 mm 12.7°
3
45%
 06:31     21:14    Daglengte: 14:43 Woensdag 11 Aug
02:00
15°
1021.3 hPa   11.5°
1
39%
08:00
15°
1021.1 hPa 0.1 mm 11.8°
1
38%
14:00
22°
1020.9 hPa 0.3 mm 12.1°
2
41%
20:00
20°
1020.4 hPa 0.3 mm 12.8°
3
44%
 06:33     21:12    Daglengte: 14:39 Donderdag 12 Aug
02:00
15°
1020.9 hPa 0.1 mm 11.7°
0
42%
08:00
15°
1020.5 hPa 0.2 mm 12.0°
0
44%
14:00
22°
1020.2 hPa 0.3 mm 12.7°
1
47%
20:00
21°
1019.8 hPa 0.2 mm 13.5°
2
45%
 06:34     21:10    Daglengte: 14:36 Vrijdag 13 Aug
02:00
16°
1020.4 hPa 0.2 mm 12.3°
0
50%
08:00
16°
1020.3 hPa 0.2 mm 12.6°
1
55%
14:00
23°
1020.1 hPa 0.3 mm 12.8°
1
50%
20:00
21°
1019.3 hPa 0.1 mm 13.4°
1
53%
 06:36     21:08    Daglengte: 14:32 Zaterdag 14 Aug
02:00
16°
1019.8 hPa 0.4 mm 12.7°
1
52%
08:00
16°
1019.5 hPa 0.4 mm 13.0°
1
52%
14:00
22°
1019.2 hPa 0.3 mm 13.5°
1
57%
20:00
20°
1018.5 hPa 0.4 mm 13.8°
2
47%
 06:37     21:07    Daglengte: 14:30 Zondag 15 Aug
02:00
16°
1019.0 hPa 0.2 mm 12.5°
1
41%
08:00
16°
1018.6 hPa 0.2 mm 13.0°
1
46%
14:00
22°
1018.6 hPa 0.2 mm 13.5°
2
57%
20:00
20°
1018.1 hPa 0.4 mm 13.4°
3
53%
  CAPE Lifted Index Hail Supercell Tornado SRH 3km CL BTM PRES CL TOP PRES Swiss DWD icon SMHI TS
 06:16     21:31    Daglengte: 15:15 Vandaag
01:00 0 J/kg 2.1 K 0 % 0 % 0 % 0 m²/s² 0 0 3.15 1
02:00 0 J/kg 2.1 K 0 % 0 % 0 % 0 m²/s² 0 0 3.36 1
03:00 0 J/kg 1.2 K 0 % 0 % 0 % 0 m²/s² 0 0 2.52 2
04:00 0 J/kg 0.6 K 0 % 0 % 0 % 0 m²/s² 0 0 1.8 2
05:00 1 J/kg 0.2 K 0 % 0 % 0 % 0 m²/s² 0 0 1.46 3
06:00 2 J/kg -0.1 K 0 % 0 % 0 % 0 m²/s² 0 0 1.37 3
07:00 2 J/kg 0.1 K 0 % 0 % 0 % 0 m²/s² 0 0 1.69 3
08:00 5 J/kg 0.0 K 0 % 0 % 0 % 0 m²/s² 0 0 1.65 3
09:00 54 J/kg 0.1 K 0 % 0 % 0 % 0 m²/s² 0 0 1.57 2
10:00 228 J/kg -0.5 K 0 % 0 % 0 % 0 m²/s² 0 0 0.91 2
11:00 307 J/kg -0.8 K 0 % 0 % 0 % 0 m²/s² 0 0 0.52 80
12:00 375 J/kg -1.2 K 0 % 0 % 0 % 0 m²/s² 0 0 0.06 3
13:00 507 J/kg -2.0 K 0 % 0 % 0 % 0 m²/s² 0 0 -0.83 80
14:00 516 J/kg -2.1 K 0 % 0 % 0 % 0 m²/s² 0 0 -1.05 3
15:00 430 J/kg -2.2 K 0 % 0 % 0 % 0 m²/s² 0 0 -2.17 80
16:00 444 J/kg -1.4 K 0 % 0 % 0 % 0 m²/s² 0 0 -0.8 80
17:00 421 J/kg -1.5 K 0 % 0 % 0 % 0 m²/s² 0 0 -0.48 80
18:00 284 J/kg -0.8 K 0 % 0 % 0 % 0 m²/s² 0 0 0.31 80
19:00 291 J/kg -0.7 K 0 % 0 % 0 % 0 m²/s² 0 0 0.53 2
20:00 251 J/kg -0.5 K 0 % 0 % 0 % 0 m²/s² 0 0 0.37 2
21:00 236 J/kg -0.5 K 0 % 0 % 0 % 0 m²/s² 0 0 0.19 2
22:00 189 J/kg -0.3 K 0 % 0 % 0 % 0 m²/s² 0 0 0.39 2
23:00 120 J/kg 0.2 K 0 % 0 % 0 % 0 m²/s² 0 0 1.85 3
 06:18     21:30    Daglengte: 15:12 Morgen
00:00 134 J/kg 0.4 K 0 % 0 % 0 % 0 m²/s² 0 0 1.84 3
01:00 150 J/kg 0.4 K 0 % 0 % 0 % 0 m²/s² 0 0 1.27 3
02:00 66 J/kg 0.7 K 0 % 0 % 0 % 0 m²/s² 0 0 1.54 80
03:00 8 J/kg 1.0 K 0 % 0 % 0 % 0 m²/s² 0 0 1.51 80
04:00 0 J/kg 1.4 K 0 % 0 % 0 % 0 m²/s² 0 0 1.94 3
05:00 0 J/kg 2.2 K 0 % 0 % 0 % 0 m²/s² 0 0 3.7 3
06:00 1 J/kg 3.2 K 0 % 0 % 0 % 0 m²/s² 0 0 3.74 3
07:00 2 J/kg 2.9 K 0 % 0 % 0 % 0 m²/s² 0 0 4.01 80
08:00 1 J/kg 1.4 K 0 % 0 % 0 % 0 m²/s² 0 0 3.41 80
09:00 1 J/kg 1.2 K 0 % 0 % 0 % 0 m²/s² 0 0 3.57 53
10:00 0 J/kg 1.4 K 0 % 0 % 0 % 0 m²/s² 0 0 3.68 3
11:00 110 J/kg 1.3 K 0 % 0 % 0 % 0 m²/s² 0 0 3.58 80
12:00 237 J/kg 0.1 K 0 % 0 % 0 % 0 m²/s² 0 0 2.68 80
13:00 293 J/kg -0.2 K 0 % 0 % 0 % 0 m²/s² 0 0 2.23 80
14:00 226 J/kg 0.2 K 0 % 0 % 0 % 0 m²/s² 0 0 2.48 3
15:00 201 J/kg 0.2 K 0 % 0 % 0 % 0 m²/s² 0 0 2.57 80
16:00 193 J/kg 0.3 K 0 % 0 % 0 % 0 m²/s² 0 0 2.88 80
17:00 184 J/kg 0.3 K 0 % 0 % 0 % 0 m²/s² 0 0 2.88 3
18:00 192 J/kg 0.1 K 0 % 0 % 0 % 0 m²/s² 0 0 2.83 3
19:00 118 J/kg 0.5 K 0 % 0 % 0 % 0 m²/s² 0 0 3.65 3
20:00 39 J/kg 1.1 K 0 % 0 % 0 % 0 m²/s² 0 0 4.25 3
21:00 0 J/kg 1.5 K 0 % 0 % 0 % 0 m²/s² 0 0 4.56 3
22:00 0 J/kg 1.6 K 0 % 0 % 0 % 0 m²/s² 0 0 4.03 3
23:00 0 J/kg 1.6 K 0 % 0 % 0 % 0 m²/s² 0 0 3.76 3
 06:19     21:28    Daglengte: 15:09 Dinsdag 03 Aug
00:00 0 J/kg 1.0 K 0 % 0 % 0 % 0 m²/s² 0 0 1.87 3
01:00 0 J/kg 1.3 K 0 % 0 % 0 % 0 m²/s² 0 0 3.19 2
02:00 0 J/kg 1.4 K 0 % 0 % 0 % 0 m²/s² 0 0 3.77 2
03:00 0 J/kg 1.1 K 0 % 0 % 0 % 0 m²/s² 0 0 3.26 3
04:00 0 J/kg 1.2 K 0 % 0 % 0 % 0 m²/s² 0 0 2.97 3
05:00 0 J/kg 0.9 K 0 % 0 % 0 % 0 m²/s² 0 0 2.16 3
06:00 0 J/kg 2.0 K 0 % 0 % 0 % 0 m²/s² 0 0 3.2 3
07:00 0 J/kg 2.6 K 0 % 0 % 0 % 0 m²/s² 0 0 3.71 3
08:00 0 J/kg 4.0 K 0 % 0 % 0 % 0 m²/s² 0 0 5.41 3
09:00 0 J/kg 4.6 K 0 % 0 % 0 % 0 m²/s² 0 0 6.31 3
10:00 0 J/kg 5.4 K 0 % 0 % 0 % 0 m²/s² 0 0 7.17 3
11:00 0 J/kg 5.0 K 0 % 0 % 0 % 0 m²/s² 0 0 6.59 3
12:00 0 J/kg 4.9 K 0 % 0 % 0 % 0 m²/s² 0 0 6.31 3
13:00 0 J/kg 4.8 K 0 % 0 % 0 % 0 m²/s² 0 0 6.18 3
14:00 2 J/kg 4.6 K 0 % 0 % 0 % 0 m²/s² 0 0 5.8 3
15:00 7 J/kg 4.4 K 0 % 0 % 0 % 0 m²/s² 0 0 5.66 3
16:00 10 J/kg 4.3 K 0 % 0 % 0 % 0 m²/s² 0 0 5.83 2
17:00 21 J/kg 3.8 K 0 % 0 % 0 % 0 m²/s² 0 0 5.51 3
18:00 52 J/kg 3.0 K 0 % 0 % 0 % 0 m²/s² 0 0 5.04 3
19:00 94 J/kg 3.4 K 0 % 0 % 0 % 0 m²/s² 0 0 5.38 2
20:00 58 J/kg 4.1 K 0 % 0 % 0 % 0 m²/s² 0 0 6.68 3
21:00 15 J/kg 4.4 K 0 % 0 % 0 % 0 m²/s² 0 0 7.37 2
22:00 0 J/kg 5.0 K 0 % 0 % 0 % 0 m²/s² 0 0 8.15 2
23:00 0 J/kg 4.7 K 0 % 0 % 0 % 0 m²/s² 0 0 7.85 2
 06:21     21:27    Daglengte: 15:06 Woensdag 04 Aug
00:00 0 J/kg 4.9 K 0 % 0 % 0 % 0 m²/s² 0 0 8.05 2
Temp Baro Wind Neerslag
  EWN Forecast EWN WRFDA DWD ICON FMI HIRLAM MET Norway GFS
 06:16     21:31    Daglengte: 15:15 Vandaag
02:00 13.3° 1010.6 hPa 3.1 m/s 0.0 mm 12.6° 1009.5 hPa 2.9 m/s 0.2 mm 13.4° 1010.7 hPa 2.8 m/s -2.0 mm 13.3° 1010.3 hPa 3.3 m/s 0.0 mm 13.5° 1010.5 hPa 3.2 m/s
05:00 13.4° 1009.8 hPa 3.2 m/s 0.0 mm 13.0° 1008.7 hPa 3.3 m/s 0.2 mm 13.3° 1009.9 hPa 2.8 m/s 0.0 mm 14.0° 1009.5 hPa 3.7 m/s 0.0 mm 12.9° 1009.9 hPa 3.2 m/s
08:00 14.5° 1010.1 hPa 3.8 m/s 0.0 mm 13.8° 1008.5 hPa 3.3 m/s 0.5 mm 14.7° 1010.2 hPa 4.0 m/s 0.0 mm 14.7° 1010.1 hPa 3.9 m/s 0.0 mm 14.4° 1010.1 hPa 3.5 m/s
11:00 17.3° 1011.0 hPa 4.1 m/s 0.2 mm 19.0° 1009.0 hPa 4.3 m/s 0.6 mm 17.5° 1011.2 hPa 4.1 m/s 0.4 mm 16.7° 1010.9 hPa 3.8 m/s 0.0 mm 19.2° 1010.6 hPa 4.7 m/s
14:00 18.5° 1011.0 hPa 4.1 m/s 0.4 mm 20.1° 1008.8 hPa 5.1 m/s 0.9 mm 18.5° 1011.6 hPa 4.0 m/s 0.6 mm 18.3° 1010.7 hPa 3.4 m/s 0.0 mm 18.9° 1010.8 hPa 4.3 m/s
17:00 18.4° 1011.0 hPa 3.8 m/s 3.8 mm 19.5° 1008.9 hPa 3.7 m/s 15.1 mm 18.4° 1011.1 hPa 3.7 m/s 0.8 mm 18.1° 1011.2 hPa 4.0 m/s 0.0 mm 19.2° 1011.3 hPa 4.2 m/s
20:00 17.5° 1011.6 hPa 2.6 m/s 3.4 mm 19.2° 1009.5 hPa 3.9 m/s 21.0 mm 17.4° 1011.3 hPa 2.5 m/s 0.5 mm 17.0° 1011.9 hPa 2.8 m/s 0.0 mm 17.0° 1011.6 hPa 2.7 m/s
23:00 15.4° 1012.7 hPa 1.0 m/s 0.0 mm 16.8° 1010.8 hPa 2.4 m/s 22.1 mm 15.3° 1012.6 hPa 0.7 m/s 0.0 mm 14.9° 1013.2 hPa 1.3 m/s 0.0 mm 14.2° 1013.0 hPa 1.4 m/s
 06:18     21:30    Daglengte: 15:12 Morgen
02:00 15.1° 1012.7 hPa 1.5 m/s 3.7 mm 14.3° 1010.9 hPa 1.2 m/s 23.1 mm 14.8° 1012.5 hPa 1.2 m/s 0.4 mm 15.2° 1013.0 hPa 1.9 m/s 0.0 mm 13.1° 1013.6 hPa 0.9 m/s
05:00 14.3° 1012.8 hPa 1.6 m/s 5.3 mm 11.9° 1011.0 hPa 2.4 m/s 23.2 mm 14.6° 1012.5 hPa 1.4 m/s 0.4 mm 15.0° 1013.0 hPa 1.3 m/s 0.0 mm 12.8° 1013.6 hPa 0.6 m/s
08:00 14.2° 1013.8 hPa 1.9 m/s 6.7 mm 12.4° 1011.8 hPa 2.3 m/s 23.3 mm 14.5° 1013.5 hPa 1.2 m/s 0.7 mm 15.2° 1014.1 hPa 2.0 m/s 0.0 mm 13.8° 1014.3 hPa 0.9 m/s
11:00 15.6° 1014.8 hPa 1.4 m/s 1.8 mm 16.1° 1012.1 hPa 2.8 m/s 24.6 mm 16.3° 1014.2 hPa 1.3 m/s 0.7 mm 15.4° 1015.4 hPa 1.6 m/s 0.0 mm 15.4° 1014.6 hPa 1.5 m/s
14:00 18.4° 1014.7 hPa 1.8 m/s 0.0 mm 19.0° 1012.1 hPa 1.5 m/s 26.6 mm 18.4° 1014.2 hPa 1.8 m/s 0.9 mm 18.1° 1016.0 hPa 2.3 m/s 0.0 mm 20.5° 1013.6 hPa 1.3 m/s
17:00 18.5° 1014.4 hPa 1.9 m/s 2.4 mm 20.5° 1011.9 hPa 3.0 m/s 27.9 mm 18.7° 1014.0 hPa 0.9 m/s 1.7 mm 17.0° 1016.4 hPa 2.8 m/s 0.0 mm 18.8° 1013.2 hPa 0.7 m/s
20:00 17.6° 1014.3 hPa 2.2 m/s 0.0 mm 19.3° 1012.1 hPa 3.8 m/s 28.0 mm 18.1° 1013.7 hPa 2.6 m/s 0.0 mm 16.2° 1016.9 hPa 2.1 m/s 0.0 mm 18.0° 1013.0 hPa 1.9 m/s
23:00 15.0° 1014.5 hPa 2.5 m/s 0.0 mm 15.1° 1012.7 hPa 3.2 m/s 28.0 mm 15.3° 1014.7 hPa 1.9 m/s 0.0 mm 15.2° 1013.4 hPa 1.4 m/s
 06:19     21:28    Daglengte: 15:09 Dinsdag 03 Aug
02:00 13.7° 1014.5 hPa 2.2 m/s 0.0 mm 14.3° 1013.0 hPa 2.3 m/s 28.0 mm 13.6° 1014.6 hPa 1.7 m/s 0.0 mm 14.3° 1013.0 hPa 1.7 m/s
05:00 12.8° 1013.7 hPa 1.8 m/s 0.0 mm 13.7° 1011.8 hPa 1.6 m/s 28.0 mm 12.7° 1014.1 hPa 1.6 m/s 0.0 mm 13.6° 1012.3 hPa 2.4 m/s
08:00 13.5° 1014.0 hPa 2.2 m/s 0.0 mm 14.3° 1012.2 hPa 2.1 m/s 28.0 mm 13.6° 1014.2 hPa 1.6 m/s 0.0 mm 13.5° 1012.6 hPa 1.8 m/s
11:00 18.0° 1013.9 hPa 2.6 m/s 0.0 mm 17.6° 1012.0 hPa 2.9 m/s 28.0 mm 18.1° 1014.4 hPa 2.5 m/s 0.0 mm 14.6° 1012.9 hPa 1.9 m/s
14:00 20.7° 1012.9 hPa 2.2 m/s 0.0 mm 20.1° 1011.3 hPa 2.2 m/s 28.0 mm 20.9° 1013.3 hPa 2.2 m/s 0.0 mm 16.6° 1012.8 hPa 2.5 m/s
17:00 21.6° 1012.1 hPa 2.0 m/s 0.0 mm 21.4° 1011.3 hPa 3.0 m/s 28.0 mm 21.6° 1012.3 hPa 1.8 m/s 0.0 mm 19.5° 1012.4 hPa 2.7 m/s
20:00 19.9° 1012.1 hPa 3.3 m/s 0.0 mm 19.6° 1011.7 hPa 4.3 m/s 28.0 mm 20.0° 1012.2 hPa 3.1 m/s 0.0 mm 16.3° 1012.9 hPa 1.8 m/s
23:00 16.1° 1013.3 hPa 2.3 m/s 0.0 mm 16.3° 1012.7 hPa 3.4 m/s 28.0 mm 16.0° 1013.5 hPa 2.1 m/s 0.0 mm 14.8° 1013.5 hPa 1.6 m/s
 06:21     21:27    Daglengte: 15:06 Woensdag 04 Aug
02:00 14.1° 1013.1 hPa 1.7 m/s 0.0 mm 13.3° 1012.7 hPa 2.6 m/s 28.0 mm 14.3° 1013.1 hPa 1.5 m/s 0.0 mm 14.3° 1013.0 hPa 1.6 m/s
05:00 14.0° 1012.3 hPa 0.9 m/s 20.7 mm 14.0° 1012.3 hPa 0.9 m/s 20.7 mm
08:00 13.9° 1013.0 hPa 0.4 m/s 21.9 mm 13.9° 1013.0 hPa 0.4 m/s 21.9 mm
11:00 15.5° 1013.8 hPa 1.5 m/s 23.0 mm 15.5° 1013.8 hPa 1.5 m/s 23.0 mm
14:00 15.5° 1014.1 hPa 1.1 m/s 24.9 mm 15.5° 1014.1 hPa 1.1 m/s 24.9 mm
17:00 17.1° 1014.5 hPa 1.4 m/s 26.2 mm 17.1° 1014.5 hPa 1.4 m/s 26.2 mm
20:00 16.2° 1014.4 hPa 2.3 m/s 27.6 mm 16.2° 1014.4 hPa 2.3 m/s 27.6 mm
23:00 13.9° 1015.3 hPa 1.8 m/s 28.2 mm 13.9° 1015.3 hPa 1.8 m/s 28.2 mm
 06:22     21:25    Daglengte: 15:03 Donderdag 05 Aug
02:00 12.7° 1014.8 hPa 1.4 m/s 28.2 mm 12.7° 1014.8 hPa 1.4 m/s 28.2 mm
05:00 11.8° 1013.3 hPa 2.1 m/s 28.2 mm 11.8° 1013.3 hPa 2.1 m/s 28.2 mm
08:00 12.3° 1012.0 hPa 2.9 m/s 28.2 mm 12.3° 1012.0 hPa 2.9 m/s 28.2 mm
11:00 14.6° 1010.5 hPa 4.1 m/s 28.2 mm 14.6° 1010.5 hPa 4.1 m/s 28.2 mm
14:00 15.7° 1008.5 hPa 4.6 m/s 28.6 mm 15.7° 1008.5 hPa 4.6 m/s 28.6 mm
17:00 13.9° 1005.8 hPa 5.8 m/s 29.7 mm 13.9° 1005.8 hPa 5.8 m/s 29.7 mm
20:00 13.9° 1004.2 hPa 5.6 m/s 31.8 mm 13.9° 1004.2 hPa 5.6 m/s 31.8 mm
23:00 14.2° 1003.1 hPa 4.7 m/s 32.0 mm 14.2° 1003.1 hPa 4.7 m/s 32.0 mm
 06:24     21:23    Daglengte: 14:59 Vrijdag 06 Aug
02:00 13.9° 1002.5 hPa 4.7 m/s 32.3 mm 13.9° 1002.5 hPa 4.7 m/s 32.3 mm
05:00 14.1° 1001.0 hPa 5.3 m/s 37.8 mm 14.1° 1001.0 hPa 5.3 m/s 37.8 mm
08:00 14.4° 999.7 hPa 7.4 m/s 42.6 mm 14.4° 999.7 hPa 7.4 m/s 42.6 mm
11:00 15.6° 1001.1 hPa 7.0 m/s 44.1 mm 15.6° 1001.1 hPa 7.0 m/s 44.1 mm
14:00 16.9° 1002.3 hPa 6.7 m/s 45.1 mm 16.9° 1002.3 hPa 6.7 m/s 45.1 mm
17:00 18.4° 1003.5 hPa 7.7 m/s 46.3 mm 18.4° 1003.5 hPa 7.7 m/s 46.3 mm
20:00 17.4° 1005.3 hPa 7.1 m/s 46.7 mm 17.4° 1005.3 hPa 7.1 m/s 46.7 mm
23:00 15.3° 1007.2 hPa 6.0 m/s 46.7 mm 15.3° 1007.2 hPa 6.0 m/s 46.7 mm
 06:25     21:21    Daglengte: 14:56 Zaterdag 07 Aug
02:00 14.3° 1008.2 hPa 5.0 m/s 46.7 mm 14.3° 1008.2 hPa 5.0 m/s 46.7 mm
05:00 15.0° 1008.5 hPa 4.9 m/s 46.7 mm 15.0° 1008.5 hPa 4.9 m/s 46.7 mm
08:00 14.8° 1008.8 hPa 4.0 m/s 46.7 mm 14.8° 1008.8 hPa 4.0 m/s 46.7 mm
11:00 18.2° 1009.1 hPa 4.3 m/s 46.7 mm 18.2° 1009.1 hPa 4.3 m/s 46.7 mm
14:00 21.2° 1008.5 hPa 4.4 m/s 46.8 mm 21.2° 1008.5 hPa 4.4 m/s 46.8 mm
17:00 22.1° 1008.1 hPa 4.7 m/s 46.8 mm 22.1° 1008.1 hPa 4.7 m/s 46.8 mm
20:00 19.0° 1007.4 hPa 1.9 m/s 46.9 mm 19.0° 1007.4 hPa 1.9 m/s 46.9 mm
23:00 17.5° 1007.4 hPa 3.9 m/s 47.0 mm 17.5° 1007.4 hPa 3.9 m/s 47.0 mm
 06:27     21:20    Daglengte: 14:53 Zondag 08 Aug
02:00 17.5° 1007.0 hPa 5.1 m/s 47.2 mm 17.5° 1007.0 hPa 5.1 m/s 47.2 mm
08:00 15.9° 1007.1 hPa 5.1 m/s 48.4 mm 15.9° 1007.1 hPa 5.1 m/s 48.4 mm
14:00 20.6° 1008.8 hPa 8.5 m/s 48.7 mm 20.6° 1008.8 hPa 8.5 m/s 48.7 mm
20:00 17.2° 1010.9 hPa 8.7 m/s 50.3 mm 17.2° 1010.9 hPa 8.7 m/s 50.3 mm
 06:28     21:18    Daglengte: 14:50 Maandag 09 Aug
02:00 16.2° 1015.0 hPa 8.2 m/s 50.4 mm 16.2° 1015.0 hPa 8.2 m/s 50.4 mm
08:00 15.8° 1017.5 hPa 6.0 m/s 50.6 mm 15.8° 1017.5 hPa 6.0 m/s 50.6 mm
14:00 19.0° 1020.8 hPa 6.4 m/s 51.2 mm 19.0° 1020.8 hPa 6.4 m/s 51.2 mm
20:00 17.9° 1022.7 hPa 4.5 m/s 51.3 mm 17.9° 1022.7 hPa 4.5 m/s 51.3 mm
 06:30     21:16    Daglengte: 14:46 Dinsdag 10 Aug
02:00 14.4° 1024.2 hPa 3.8 m/s 51.3 mm 14.4° 1024.2 hPa 3.8 m/s 51.3 mm
08:00 14.5° 1024.2 hPa 2.9 m/s 51.3 mm 14.5° 1024.2 hPa 2.9 m/s 51.3 mm
14:00 20.2° 1024.2 hPa 4.7 m/s 51.5 mm 20.2° 1024.2 hPa 4.7 m/s 51.5 mm
20:00 19.4° 1020.4 hPa 2.8 m/s 0.5 mm
 06:31     21:14    Daglengte: 14:43 Woensdag 11 Aug
02:00 14.5° 1021.3 hPa 1.5 m/s 0.0 mm
08:00 14.8° 1021.1 hPa 1.4 m/s 0.1 mm
14:00 21.7° 1020.9 hPa 1.9 m/s 0.3 mm
20:00 19.7° 1020.4 hPa 2.5 m/s 0.3 mm
 06:33     21:12    Daglengte: 14:39 Donderdag 12 Aug
02:00 14.9° 1020.9 hPa 0.4 m/s 0.1 mm
08:00 15.2° 1020.5 hPa 0.4 m/s 0.2 mm
14:00 22.4° 1020.2 hPa 1.3 m/s 0.3 mm
20:00 20.7° 1019.8 hPa 2.2 m/s 0.2 mm
 06:34     21:10    Daglengte: 14:36 Vrijdag 13 Aug
02:00 15.9° 1020.4 hPa 0.4 m/s 0.2 mm
08:00 16.0° 1020.3 hPa 0.9 m/s 0.2 mm
14:00 22.5° 1020.1 hPa 1.3 m/s 0.3 mm
20:00 20.9° 1019.3 hPa 1.2 m/s 0.1 mm
 06:36     21:08    Daglengte: 14:32 Zaterdag 14 Aug
02:00 16.1° 1019.8 hPa 0.9 m/s 0.4 mm
08:00 16.0° 1019.5 hPa 0.9 m/s 0.4 mm
14:00 22.3° 1019.2 hPa 1.4 m/s 0.3 mm
20:00 20.5° 1018.5 hPa 2.1 m/s 0.4 mm
 06:37     21:07    Daglengte: 14:30 Zondag 15 Aug
02:00 16.0° 1019.0 hPa 0.9 m/s 0.2 mm
08:00 15.9° 1018.6 hPa 1.2 m/s 0.2 mm
14:00 22.0° 1018.6 hPa 2.3 m/s 0.2 mm
20:00 19.9° 1018.1 hPa 2.7 m/s 0.4 mm
FMI Hirlam - 7.5 km EWN WRFDA - 12 km DWD ICON - 7 km GFS - 25 km Basiskaart






























































Updatetijd (Europe/Amsterdam) Resolutie Lengte Stap
FMI Hirlam 19:00, 01:00, 07:00, 13:00 7.5 km 49h 1h
EWN WRFDA 22:15, 04:15, 10:15, 16:15 12 km 73h 1h
DWD ICON 23:45, 05:45, 11:45, 17:45 7 km 75h 1h
GFS 20:15, 02:15, 08:15, 14:15 25 km 237h 3h
30+ mm
25-30 mm
20-25 mm
15-20 mm
10-15 mm
6-10 mm
4-6 mm
2-4 mm
1-2 mm
0.5-1 mm
0.2-0.5 mm
0.1-0.2 mm
30+ mm
25-30 mm
20-25 mm
15-20 mm
10-15 mm
6-10 mm
4-6 mm
2-4 mm
1-2 mm
0.5-1 mm
0.2-0.5 mm
0.1-0.2 mm
Sneeuwval
Natte sneeuw
Hagel
Vorst
30+ mm
25-30 mm
20-25 mm
15-20 mm
10-15 mm
6-10 mm
4-6 mm
2-4 mm
1-2 mm
0.5-1 mm
0.2-0.5 mm
0.1-0.2 mm
Sneeuwval
Natte sneeuw
Hagel
Vorst
Onweer
50 mm
40 mm
30 mm
26 mm
22 mm
18 mm
14 mm
10 mm
9 mm
8 mm
7 mm
6 mm
5 mm
4.5 mm
4 mm
3.5 mm
3 mm
2.5 mm
2 mm
1.5 mm
1 mm
0.8 mm
0.6 mm
0.4 mm
0.2 mm
0.05 mm
35°
30°
25°
20°
15°
10°
-5°
-10°
-15°
-20°
-25°
-30°
-35°
33> m/s
29 m/s
25 m/s
21 m/s
17 m/s
14 m/s
11 m/s
8 m/s
5 m/s
3 m/s
0 m/s
2600 J/kg
2400 J/kg
2200 J/kg
2000 J/kg
1800 J/kg
1600 J/kg
1400 J/kg
1200 J/kg
1000 J/kg
800 J/kg
600 J/kg
400 J/kg
200 J/kg
70 dBZ
65 dBZ
60 dBZ
55 dBZ
50 dBZ
45 dBZ
40 dBZ
35 dBZ
30 dBZ
25 dBZ
20 dBZ
15 dBZ
10 dBZ
5 dBZ
-1 K
-2 K
-3 K
-4 K
-5 K
-6 K
-7 K
-8 K
-9 K
950 m²/s²
900 m²/s²
850 m²/s²
800 m²/s²
750 m²/s²
700 m²/s²
650 m²/s²
600 m²/s²
550 m²/s²
500 m²/s²
450 m²/s²
400 m²/s²
350 m²/s²
300 m²/s²
250 m²/s²
200 m²/s²
150 m²/s²
100 m²/s²
46 m/s